Change the Weather History Date:

Friday, July 12, 2013

  Actual Average Record
Temperature  
Mean Temperature 66 °F -  
Max Temperature 75 °F 71 °F 89 °F (2005)
Min Temperature 57 °F 56 °F 45 °F (1976)
Cooling Degree Days 1    
Growing Degree Days 16 (Base 50)    
Moisture  
Dew Point 55 °F    
Average Humidity 67    
Maximum Humidity 96    
Minimum Humidity 39    
Precipitation  
Precipitation 0.00 in - - ()
Sea Level Pressure  
Sea Level Pressure 30.15 in    
Wind  
Wind Speed 4 mph (SSE)    
Max Wind Speed 10 mph    
Max Gust Speed 16 mph    
Visibility 10 miles    
Events Fog    
Averages and records for this station are not official NWS values.
T = Trace of Precipitation, MM = Missing Value Source: NWS Daily Summary

Daily Weather History Graph

Daily Weather History Graph

Search for Another Location

Airport or City:

Trip Planner

Search our weather history database for the weather conditions in past years. The results will help you decide how hot, cold, wet, or windy it might be!

Date:

Astronomy

Jul. 12, 2013 Rise Set
Actual Time 6:00 AM EDT 9:27 PM EDT
Civil Twilight 5:23 AM EDT 10:04 PM EDT
Nautical Twilight 4:34 AM EDT 10:53 PM EDT
Astronomical Twilight 3:31 AM EDT 11:55 PM EDT
Moon 10:32 AM EDT (7/12) 11:19 PM EDT (7/12)
Length of Visible Light 16h 41m
Length of Day
15h 26m
Waxing Crescent, 17% of the Moon is Illuminated
Jul 12
Waxing Crescent
Jul 15
First Quarter
Jul 22
Full
Jul 29
Last Quarter
Aug 6
New

Hourly Weather History & Observations

Time (EDT) Temp. Dew Point Humidity Pressure Visibility Wind Dir Wind Speed Gust Speed Precip Events Conditions
12:16 AM 60.1 °F 54.1 °F 81% 30.10 in 10.0 mi West 3.5 mph - N/A   Clear
12:36 AM 59.7 °F 54.9 °F 84% 30.10 in 10.0 mi WSW 4.6 mph - N/A   Clear
12:56 AM 59.2 °F 55.0 °F 86% 30.10 in 10.0 mi WSW 4.6 mph - N/A   Clear
1:16 AM 59.2 °F 55.8 °F 88% 30.10 in 10.0 mi WSW 4.6 mph - N/A   Clear
1:36 AM 59.4 °F 56.7 °F 91% 30.10 in 10.0 mi SSW 6.9 mph - N/A   Clear
1:56 AM 59.5 °F 57.2 °F 92% 30.10 in 10.0 mi South 4.6 mph - N/A   Clear
2:16 AM 59.4 °F 57.2 °F 93% 30.11 in 10.0 mi SW 3.5 mph - N/A   Clear
2:36 AM 58.5 °F 56.1 °F 92% 30.11 in 10.0 mi WNW 3.5 mph - N/A   Clear
2:56 AM 59.0 °F 56.7 °F 92% 30.12 in 10.0 mi NW 3.5 mph - N/A   Mostly Cloudy
3:16 AM 59.9 °F 57.6 °F 92% 30.12 in 10.0 mi Calm Calm - N/A   Overcast
3:36 AM 61.2 °F 59.2 °F 93% 30.12 in 0.8 mi Calm Calm - N/A   Overcast
3:56 AM 60.3 °F 58.6 °F 94% 30.12 in 0.2 mi Calm Calm - N/A Fog Fog
4:15 AM 59.2 °F 57.7 °F 95% 30.12 in 2.0 mi South 3.5 mph - N/A   Mist
4:36 AM 57.9 °F 56.3 °F 94% 30.12 in 10.0 mi SSE 4.6 mph - N/A   Scattered Clouds
4:56 AM 58.5 °F 57.2 °F 96% 30.12 in 10.0 mi SSE 5.8 mph - N/A   Clear
5:15 AM 59.4 °F 57.9 °F 95% 30.13 in 10.0 mi South 5.8 mph - N/A   Clear
5:36 AM 60.1 °F 57.9 °F 93% 30.14 in 10.0 mi SSW 6.9 mph - N/A   Clear
5:56 AM 57.9 °F 55.8 °F 92% 30.15 in 10.0 mi SSW 5.8 mph - N/A   Clear
6:15 AM 57.2 °F 55.4 °F 94% 30.15 in 10.0 mi South 6.9 mph - N/A   Clear
6:36 AM 57.7 °F 55.6 °F 92% 30.16 in 10.0 mi SSW 3.5 mph - N/A   Clear
6:56 AM 57.7 °F 55.8 °F 93% 30.16 in 10.0 mi Calm Calm - N/A   Clear
7:15 AM 58.5 °F 56.5 °F 93% 30.15 in 10.0 mi South 3.5 mph - N/A   Clear
7:36 AM 60.6 °F 58.1 °F 91% 30.16 in 10.0 mi SSW 3.5 mph - N/A   Clear
7:56 AM 62.2 °F 59.0 °F 89% 30.17 in 10.0 mi South 3.5 mph - N/A   Clear
8:16 AM 64.6 °F 57.6 °F 78% 30.17 in 10.0 mi South 3.5 mph - N/A   Clear
8:36 AM 65.7 °F 56.1 °F 71% 30.18 in 10.0 mi SSE 3.5 mph - N/A   Clear
8:55 AM 66.2 °F 54.9 °F 67% 30.18 in 10.0 mi South 4.6 mph - N/A   Clear
9:16 AM 66.7 °F 53.2 °F 62% 30.19 in 10.0 mi South 4.6 mph - N/A   Clear
9:36 AM 67.3 °F 49.6 °F 53% 30.20 in 10.0 mi SSW 3.5 mph - N/A   Clear
9:56 AM 68.2 °F 51.8 °F 56% 30.20 in 10.0 mi SSW 3.5 mph - N/A   Clear
10:16 AM 68.9 °F 51.4 °F 54% 30.20 in 10.0 mi SSW 5.8 mph - N/A   Clear
10:36 AM 70.3 °F 52.2 °F 52% 30.19 in 10.0 mi South 4.6 mph - N/A   Clear
10:56 AM 71.6 °F 51.8 °F 50% 30.19 in 10.0 mi SSW 3.5 mph - N/A   Clear
11:16 AM 71.8 °F 51.8 °F 49% 30.19 in 10.0 mi South 4.6 mph - N/A   Clear
11:36 AM 73.2 °F 53.2 °F 49% 30.19 in 10.0 mi SW 3.5 mph - N/A   Clear
11:56 AM 73.0 °F 51.6 °F 47% 30.19 in 10.0 mi West 3.5 mph - N/A   Clear
12:16 PM 73.6 °F 48.7 °F 41% 30.19 in 10.0 mi Calm Calm - N/A   Clear
12:35 PM 74.5 °F 49.1 °F 41% 30.19 in 10.0 mi Calm Calm - N/A   Clear
12:56 PM 75.2 °F 51.4 °F 43% 30.18 in 10.0 mi WSW 3.5 mph - N/A   Clear
1:15 PM 75.2 °F 50.2 °F 41% 30.18 in 10.0 mi Calm Calm - N/A   Clear
1:36 PM 75.0 °F 52.2 °F 45% 30.18 in 10.0 mi West 3.5 mph - N/A   Clear
1:56 PM 74.5 °F 57.4 °F 55% 30.17 in 10.0 mi Calm Calm - N/A   Clear
2:15 PM 75.2 °F 50.2 °F 41% 30.16 in 10.0 mi South 4.6 mph - N/A   Clear
2:36 PM 75.4 °F 48.6 °F 39% 30.16 in 10.0 mi South 3.5 mph - N/A   Clear
2:56 PM 75.7 °F 53.1 °F 45% 30.16 in 10.0 mi SSE 4.6 mph - N/A   Clear
3:16 PM 75.7 °F 56.8 °F 52% 30.16 in 10.0 mi ENE 4.6 mph - N/A   Clear
3:36 PM 74.3 °F 57.6 °F 56% 30.15 in 10.0 mi East 5.8 mph - N/A   Clear
3:56 PM 74.7 °F 55.2 °F 51% 30.15 in 10.0 mi East 6.9 mph - N/A   Clear
4:16 PM 74.3 °F 55.6 °F 52% 30.15 in 10.0 mi East 3.5 mph - N/A   Clear
4:36 PM 73.8 °F 58.1 °F 58% 30.15 in 10.0 mi East 6.9 mph - N/A   Clear
4:56 PM 74.1 °F 58.1 °F 57% 30.15 in 10.0 mi East 9.2 mph - N/A   Clear
5:16 PM 73.4 °F 57.7 °F 58% 30.14 in 10.0 mi East 8.1 mph - N/A   Clear
5:36 PM 73.0 °F 57.7 °F 59% 30.15 in 10.0 mi East 6.9 mph - N/A   Clear
5:56 PM 73.6 °F 55.9 °F 54% 30.14 in 10.0 mi East 6.9 mph - N/A   Clear
6:16 PM 74.1 °F 55.2 °F 52% 30.14 in 10.0 mi East 9.2 mph - N/A   Clear
6:36 PM 74.1 °F 55.4 °F 52% 30.13 in 10.0 mi East 9.2 mph - N/A   Clear
6:56 PM 72.7 °F 56.7 °F 57% 30.13 in 10.0 mi East 5.8 mph - N/A   Clear
7:16 PM 72.7 °F 56.8 °F 57% 30.13 in 10.0 mi East 6.9 mph - N/A   Clear
7:36 PM 71.6 °F 57.0 °F 60% 30.13 in 10.0 mi East 6.9 mph - N/A   Clear
7:55 PM 70.2 °F 57.4 °F 64% 30.13 in 10.0 mi East 6.9 mph - N/A   Clear
8:16 PM 70.7 °F 56.3 °F 60% 30.13 in 10.0 mi ESE 5.8 mph - N/A   Clear
8:36 PM 68.9 °F 56.5 °F 65% 30.13 in 10.0 mi East 5.8 mph - N/A   Clear
8:55 PM 68.5 °F 55.0 °F 62% 30.12 in 10.0 mi East 8.1 mph - N/A   Clear
9:16 PM 67.8 °F 57.2 °F 69% 30.13 in 10.0 mi East 5.8 mph - N/A   Clear
9:36 PM 66.6 °F 58.3 °F 75% 30.13 in 10.0 mi East 4.6 mph - N/A   Clear
9:55 PM 66.4 °F 57.4 °F 73% 30.13 in 10.0 mi ESE 6.9 mph - N/A   Clear
10:16 PM 69.3 °F 54.0 °F 58% 30.13 in 7.0 mi ESE 8.1 mph - N/A   Clear
10:36 PM 69.3 °F 54.0 °F 58% 30.14 in 10.0 mi SE 8.1 mph - N/A   Clear
10:55 PM 70.0 °F 52.5 °F 54% 30.13 in 10.0 mi SSE 9.2 mph - N/A   Clear
11:16 PM 69.3 °F 52.3 °F 55% 30.13 in 10.0 mi SE 9.2 mph - N/A   Clear
11:36 PM 69.3 °F 51.8 °F 54% 30.13 in 10.0 mi SSE 9.2 mph - N/A   Clear
11:55 PM 69.3 °F 51.1 °F 52% 30.13 in 10.0 mi SSE 10.4 mph 16.1 mph N/A   Clear